Погода в Мон-Трамблан

Канада     46°12′37″N   74°35′19″W
темп.,
°C
ветер,
м/с
пор.,
м/с
влажн.,
%
обл.,
%
осадки,
мм/ч
давл.,
гПа
погр.,
м
13 мая, чт
чт1323:00+4с22745 0.0 102213
02:00+3ссз11715 0.0 102311
05:00+3ссз11742 0.0 102411
08:00+9сз23535 0.0 1024240
11:00+14зсз36395 0.0 10231451
14:00+17сз4736100 0.0 10212871
17:00+16зсз474394 0.0 10191865
20:00+8ссв118784 0.1 102119
14 мая, пт
пт1423:00+7юв119512 0.5 102212
02:00+5зсз11935 0.5 102210
05:00+5зсз11945 0.0 102210
08:00+10зсз13805 0.0 1022206
11:00+16зсз37475 0.0 10211303
14:00+17зсз354445 0.0 10201507
17:00+16сз384896 0.1 1019836
20:00+11зюз117561 0.3 102010
15 мая, сб
сб1523:00+8в1183100 0.1 102210
02:00+7ююз119283 0.1 102211
05:00+6сз119198 0.0 102210
08:00+11зюз1373100 0.0 1023246
11:00+15зюз465570 0.0 10221225
14:00+14з4676100 3.0 10211126
17:00+12зюз5889100 4.9 1021523
20:00+9ю129799 9.3 102244
16 мая, вс
вс1623:00+8юз1195100 0.3 102215
02:00+7з119675 0.6 102210
05:00+7зсз119697 0.2 102310
08:00+11з11876 0.2 1023197
11:00+16з127056 1.9 1023883
14:00+16з2374100 5.1 10221024
17:00+15з2475100 1.6 1022764
20:00+12зсз2588100 4.8 102279
17 мая, пн
пн1723:00+9вюв119286 0.4 102310
02:00+8всв119392 0.4 102310
05:00+7вюв11947 0.0 102410
08:00+12сз00845 0.0 1024152
11:00+18з12532 0.0 10231254
14:00+20зсз334049 0.3 10212437
17:00+17зюз2566100 0.1 1021386
20:00+13ююз1182100 0.1 102211